Weather in Vitoria da Conquista

Brazil     14°51′12″S   40°51′29″W
temp.,
°C
wind,
m/s
gust,
m/s
humid.,
%
clouds,
%
prec.,
mm/h
press.,
hPa
HPBL,
m
15 august, mon
mon1500:00+12se411932 0.0 1022352
03:00+11se399510 0.0 1021269
06:00+11se299863 0.0 1021295
09:00+18ese456281 0.0 1022822
12:00+24e333642 0.0 10191810
15:00+25ese443392 0.0 10162174
18:00+18ese510655 0.0 1018523
21:00+15ese411800 0.0 1020445
16 august, tue
tue1600:00+13ese3119613 0.0 1020345
03:00+14ese389599 0.0 1019384
06:00+15ese3684100 0.0 1020522
09:00+18e347076 0.0 1023716
12:00+26ene22375 0.0 10191908
15:00+27e333313 0.0 10152260
18:00+20ese48605 0.0 1017313
21:00+15e49943 0.0 1020306
17 august, wed
wed1700:00+14e3109831 0.0 1020306
03:00+13e139954 0.0 101978
06:00+14e3588100 0.0 1020409
09:00+17ene2472100 0.0 1022693
12:00+25ene22430 0.0 10181536
15:00+27e33339 0.0 10152205
18:00+20e37545 0.0 1017206
21:00+16e399740 0.0 1020316
18 august, thu
thu1800:00+15e399374 0.0 1019328
03:00+15e4788100 0.0 1018456
06:00+16ene3576100 0.0 1019775
09:00+17ene3465100 0.0 1021977
12:00+25e33373 0.0 10181446
15:00+27e33270 0.0 10152015
18:00+20e39440 0.0 1017254
21:00+15e4118124 0.0 1020314
19 august, fri
fri1900:00+13e269795 0.0 1020180
03:00+12e259957 0.0 1019137
06:00+14ene249255 0.0 1020223
09:00+22ne34480 0.0 1020768
12:00+29e33240 0.0 10161809
15:00+29se44200 0.0 10142154
18:00+21se37420 0.0 1016140
21:00+16e4109518 0.0 1019323